Погода в Марилии

Бразилия     22°13′00″S   49°56′48″W
темп.,
°C
ветер,
м/с
пор.,
м/с
влажн.,
%
обл.,
%
осадки,
мм/ч
давл.,
гПа
погр.,
м
20 января, чт
чт2000:00+20св12945 0.6 101725
03:00+20в11895 0.8 101511
06:00+19св008673 0.0 101611
09:00+25с116347 0.0 1017403
12:00+30с234699 0.0 10161535
15:00+32с234069 0.0 10132098
18:00+29св225546 0.0 101284
21:00+25в116326 0.0 101212
21 января, пт
пт2100:00+24в116614 0.0 101311
03:00+22юв11714 0.1 101212
06:00+21юв01774 0.0 101311
09:00+28вюв12570 0.0 1014556
12:00+33с114278 0.0 10132420
15:00+27ю3661100 0.1 1011218
18:00+28ююв235942 0.1 1010143
21:00+25в226229 0.1 101136
22 января, сб
сб2200:00+23в22715 0.0 101215
03:00+22в2375100 0.0 101160
06:00+21юв24835 0.0 101381
09:00+27в23570 0.0 1014590
12:00+34в11426 0.0 10131853
15:00+30юв1253100 0.0 101043
18:00+28всв125766 0.0 101027
21:00+25в22641 0.0 101117
23 января, вс
вс2300:00+24в22690 0.0 101230
03:00+22в22780 0.0 101027
06:00+21вюв11820 0.0 101215
09:00+28в23590 0.0 1014632
12:00+34св124354 0.0 10122276
15:00+33з234271 0.0 10101781
18:00+31св245245 0.0 1009244
21:00+26всв22605 0.0 101023
24 января, пн
пн2400:00+24св22730 0.0 101130
03:00+22св22825 0.0 101025
06:00+21в118853 0.0 101213
09:00+29всв22605 0.0 1013623
12:00+35всв133869 0.0 10112300
15:00+35вюв443112 0.0 10082840
18:00+32всв354213 0.0 1007232
21:00+25св26640 0.0 1008123